sat.trackr.live / text

‹ back to catalog

STARLINK-6128

NORAD 57132 · 2023-090AH

PAYLOAD ACTIVE UNKNOWN

§ Identity

Operator
Country
US
Launch date
2023-06-23
Launch site
AFETR
Launch vehicle
Mass (kg)
RCS (m²)

Purposes: comms

External: N2YO · Heavens-Above · Gunter

§ Orbital elements

Epoch: 2026-09-20T08:13:30.218304Z

Period
94.27 min
Inclination
43.0006°
Eccentricity
0.0001434
Mean motion
15.27575638 rev/d
Perigee alt
482.1 km
Apogee alt
484.0 km
Semi-major
6,861.2 km
B*
8.0190e-6
RAAN
262.1144°
Arg perigee
270.0668°
Mean anomaly
90.0020°
Rev number
17,991

§ Raw data

STARLINK-61281 57132U 23090AH  26263.34271086 -.00000041  00000+0  80190-5 0  99902 57132  43.0006 262.1144 0001434 270.0668  90.0020 15.27575638179911

JSON: /api/v1/satellites/57132 · /tle

For live sub-satellite position, see the globe view (requires WebGL).

§ Visibility from observer

Set your observer location to see the next 7 days of passes ≥ 10°. The values pass through the URL so the page stays shareable.

No JS? Fill the form by hand. The geolocation button needs JavaScript.